EZY298K EGAC-EGKK

Flight info

Callsign EZY298K
Flight time N/A
Altitude 33000
Route DCT DUFFY L10 RINGA DCT BABGU DCT ETIGA DCT INKOB Q39 NOMSU UQ4 WAL L151 DISIT DISIT1G
Aircraft A319/M-SDE3FGHIRWY/LB1

Departure

Time 2026-04-30 13:35
Airport George Best Belfast City Airport (EGAC)

Arrival

Time N/A
Airport London Gatwick Airport (EGKK)
Time Latitude Longitude Altitude Speed Heading
2026-04-30 13:25 54.61493 -5.87141 15 ft 0 kts 156°
2026-04-30 13:28 54.61505 -5.87150 15 ft 2 kts 156°
2026-04-30 13:28 54.61528 -5.87166 15 ft 2 kts 140°
2026-04-30 13:28 54.61535 -5.87189 16 ft 2 kts 98°
2026-04-30 13:29 54.61528 -5.87227 16 ft 0 kts 37°
2026-04-30 13:29 54.61521 -5.87234 16 ft 0 kts 33°
2026-04-30 13:31 54.61580 -5.87163 15 ft 11 kts 34°
2026-04-30 13:31 54.61775 -5.87034 15 ft 8 kts 307°
2026-04-30 13:32 54.61872 -5.87169 16 ft 10 kts 27°
2026-04-30 13:32 54.62066 -5.86945 15 ft 25 kts 35°
2026-04-30 13:33 54.62347 -5.86607 18 ft 24 kts 34°
2026-04-30 13:33 54.62448 -5.86472 18 ft 9 kts 241°
2026-04-30 13:34 54.62400 -5.86552 18 ft 10 kts 213°
2026-04-30 13:34 54.60812 -5.88417 279 ft 163 kts 211°
2026-04-30 13:35 54.59788 -5.89488 768 ft 182 kts 209°
2026-04-30 13:35 54.57413 -5.91831 1941 ft 218 kts 211°
2026-04-30 13:36 54.54752 -5.94622 3060 ft 228 kts 211°
2026-04-30 13:36 54.53403 -5.96044 3611 ft 230 kts 211°
2026-04-30 13:36 54.50564 -5.98589 4929 ft 234 kts 204°
2026-04-30 13:37 54.49087 -5.99769 5770 ft 236 kts 206°